Content
SEND FEEDBACK

Daily
Averages
Monthly
Summary
United States of America

SOUTH LAKE TAHOE, CALIFORNIA


Home > North America > United States > California
Elevation: 6263 feet     Latitude: 38 53N     Longitude: 119 59W

WEATHER
 
SELECT A DAY
Number of Records: 174,582;   Date Range: 1/1/95 - 9/3/14
 
SHARE

PRINT THIS DATA

[ ← Previous Day ]
WEATHER ALMANAC - MARCH 15, 2013
[ Next Day → ]
[ °C ]   °F
Weather ElementAverageHighLow
Temperature43.7 °F62.1 °F (2:53 pm)28.9 °F (4:53 am)
Dewpoint25 °F34 °F (1:53 pm)10.9 °F (12:53 pm)
Humidity54 %79 % (2:53 am)14 % (12:53 pm)
Barometer30.15 in30.22 in (8:53 am)30.07 in (11:53 pm)
Wind Speed2.9 mph11.5 mph (2:53 pm)
Wind Gust19.6 mph (4:53 pm)
Weather ElementAverage
Visibility10 mi
Wind DirectionENE (54.1 °)

Weather ElementTotal
Precipitation---
Heating Degree Days19.5 (Base 65)
Averaged from 22 records on March 15, 2013
WEATHER CONDITIONS BREAKOUT
WIND DIRECTION BREAKOUT
WEATHER BY HOUR - MARCH 15, 2013
[ °C ]   °F
Local TimeTemperatureDewpointHumidityBarometerVisibilityWind DirectionWind SpeedGust SpeedPrecipitationEventsConditions
2:53 AM30.9 °F25.0 °F79 %30.17 in10.0 miCalmClear
3:53 AM30.0 °F24.1 °F79 %30.17 in10.0 miCalmClear
4:53 AM28.9 °F23.0 °F78 %30.19 in10.0 miCalmClear
5:53 AM28.9 °F23.0 °F78 %30.19 in10.0 miCalmClear
6:53 AM28.9 °F23.0 °F78 %30.21 in10.0 miSouth (180°)3.5 mphClear
7:53 AM28.9 °F23.0 °F78 %30.21 in10.0 miCalmClear
8:53 AM36.0 °F27.0 °F70 %30.22 in10.0 miVariable3.5 mphClear
9:53 AM41.0 °F28.9 °F62 %30.22 in10.0 miCalmClear
10:53 AM46.0 °F33.1 °F61 %30.20 in10.0 miSouth (170°)4.6 mphClear
11:53 AM57.9 °F21.0 °F24 %30.14 in10.0 miVariable4.6 mphClear
12:53 PM61.0 °F10.9 °F14 %30.12 in10.0 miVariable5.8 mphClear
1:53 PM57.0 °F34.0 °F42 %30.12 in10.0 miNE (40°)8.1 mphClear
2:53 PM62.1 °F19.9 °F20 %30.09 in10.0 miSouth (190°)11.5 mphClear
3:53 PM61.0 °F24.1 °F24 %30.09 in10.0 miSSW (210°)5.8 mphClear
4:53 PM59.0 °F23.0 °F25 %30.11 in10.0 miSSW (210°)8.1 mph19.6 mphClear
5:53 PM57.0 °F21.9 °F26 %30.11 in10.0 miVariable3.5 mphClear
6:53 PM48.9 °F28.9 °F46 %30.14 in10.0 miCalmClear
7:53 PM44.1 °F28.0 °F53 %30.16 in10.0 miCalmClear
8:53 PM41.0 °F28.0 °F60 %30.14 in10.0 miCalmClear
9:53 PM39.9 °F28.0 °F63 %30.13 in10.0 miCalmClear
10:53 PM37.9 °F27.0 °F65 %30.14 in10.0 miCalmPartly Cloudy
11:53 PM36.0 °F25.0 °F64 %30.07 in10.0 miSouth (190°)5.8 mphClear
Hourly data recorded from KTVL, located miles away from South Lake Tahoe, California







STORIES FROM OUR PARTNERS